SCP
0 0 0 0 0 0 0 0 0 0 0 0 0 0 0 0 0 0 0 0 0 1 1 1 1 1 1 1 1 1 1 2 2 2 2 1 1 1 1 0 0 0 0 0
0 0 0 0 0 0 0 0 0 0 0 0 0 0 0 0 0 0 0 0 0 0 1 1 1 1 1 1 1 1 1 2 2 2 2 2 1 1 1 1 0 0 0 0
0 0 0 0 0 0 0 0 0 0 0 0 0 0 0 0 0 0 0 0 0 0 0 1 1 1 1 1 1 1 1 2 2 2 2 2 2 2 1 1 1 0 0 0
0 0 0 0 0 0 0 0 0 0 0 0 0 0 0 0 0 0 0 0 0 0 0 0 0 1 1 1 1 1 1 1 2 2 2 2 2 2 1 1 1 0 0 0
0 0 0 0 0 0 0 0 0 0 0 0 0 0 0 0 0 0 0 0 0 0 0 0 0 0 0 1 1 1 0 1 1 2 2 2 2 2 2 1 1 0 0 0
0 0 0 0 0 0 0 0 0 0 0 0 0 0 0 0 0 0 0 0 0 0 0 0 0 0 0 1 1 1 0 1 1 2 2 2 2 2 2 1 1 0 0 0
0 0 0 0 0 0 0 0 0 0 0 0 0 0 0 0 0 0 0 0 0 0 1 1 1 1 1 1 1 1 1 1 1 2 2 2 2 2 2 1 1 1 0 0
0 0 0 0 0 0 0 0 0 0 0 0 0 0 0 0 0 0 0 0 0 0 1 1 1 1 1 1 1 1 1 1 1 2 2 2 2 2 2 2 1 1 1 0
0 0 0 0 0 0 0 0 0 0 0 0 0 0 0 0 0 0 0 0 0 0 1 1 1 1 1 1 1 1 1 1 1 2 2 3 2 2 2 2 2 1 1 1
0 0 0 0 0 0 0 0 0 0 0 0 0 0 0 0 0 0 0 0 0 0 0 1 1 1 1 1 1 1 1 1 1 2 2 3 3 2 2 2 2 2 1 1
0 0 0 0 0 0 0 0 0 0 0 0 0 0 0 0 0 0 0 0 0 0 0 1 1 1 1 2 2 1 1 1 1 1 2 3 3 2 2 3 3 2 2 2
0 0 0 0 0 0 0 0 0 0 0 0 0 0 0 0 0 0 0 0 0 0 0 1 1 1 1 2 2 2 1 1 1 1 2 2 3 3 2 2 3 3 2 2
0 0 0 0 0 0 0 0 0 0 0 0 0 0 0 0 0 0 0 0 0 0 0 1 1 1 1 2 2 2 2 1 1 1 1 2 3 3 3 2 3 3 3 2
0 0 0 0 0 0 0 0 0 0 0 0 0 0 0 0 0 0 0 0 0 1 1 1 1 1 1 2 2 2 2 1 1 1 1 2 2 3 3 3 3 3 2 2
0 0 0 0 0 0 0 0 0 0 0 0 0 0 0 0 0 0 0 0 1 1 1 1 1 1 1 1 2 2 2 1 1 1 1 2 2 3 4 4 3 3 3 3
0 0 0 0 0 0 0 0 0 0 0 0 0 0 0 0 0 0 0 0 0 1 1 1 1 1 1 1 1 1 1 1 1 1 2 2 2 3 4 5 4 3 3 3
0 0 0 0 0 0 0 0 0 0 0 0 0 0 0 0 0 0 0 0 0 1 1 1 1 1 1 1 1 1 1 1 1 1 2 2 2 3 4 5 5 4 4 4
0 0 0 0 0 0 0 0 0 0 0 0 0 0 0 0 0 0 0 0 0 0 1 1 1 1 1 1 1 1 1 1 1 1 2 2 2 2 3 5 4 4 4 4
0 0 0 0 0 0 0 0 0 0 0 0 0 0 0 0 0 0 0 0 0 0 1 1 1 1 1 1 1 1 1 1 1 2 2 2 2 2 3 3 4 3 3 3
0 0 0 0 0 0 0 0 0 0 0 0 0 0 0 0 0 0 0 0 0 0 1 1 1 1 1 1 1 1 1 1 1 2 2 2 2 2 2 2 2 2 2 2
0 0 0 0 0 0 0 0 0 0 0 0 0 0 0 0 0 0 0 0 0 0 1 1 1 1 1 1 1 1 1 1 2 2 2 2 2 2 2 2 2 2 2 2
0 0 0 0 0 0 0 0 0 0 0 0 0 0 0 0 0 0 0 0 1 1 1 1 1 1 1 1 1 1 1 1 2 3 3 3 3 2 2 2 2 2 2 2
0 0 0 0 0 0 0 0 0 0 0 0 0 0 0 0 0 0 1 1 1 1 1 1 1 1 1 0 0 1 1 2 3 4 4 4 3 3 2 1 1 2 2 1
0 0 0 0 0 0 0 0 0 0 0 0 0 0 0 0 0 0 1 1 1 2 2 2 2 1 1 1 1 1 1 2 3 4 4 4 4 3 2 2 2 2 1 1
0 0 0 0 0 0 0 0 0 0 0 0 0 0 0 0 0 1 1 1 1 2 2 2 2 2 1 1 1 1 2 2 3 4 4 4 4 4 3 3 2 1 1 1
0 0 0 0 0 0 0 0 0 0 0 0 0 0 0 0 0 1 1 1 2 2 2 3 3 2 2 1 1 1 2 3 4 5 4 4 5 5 4 3 2 1 0 0
Wind_Speed
3 5 4 4 2 1 2 2 2 1 0 4 4 4 3 3 5 6 6 7 7 7 6 6 6 6 6 6 6 6 6 5 4 3 3 2 2 2 2 2 2 2 2 2
5 4 2 2 3 4 4 5 3 2 1 4 4 4 3 4 6 6 6 7 8 7 7 6 6 7 7 7 7 7 6 6 5 3 2 2 2 2 2 1 2 2 2 2
4 2 2 5 5 6 5 5 4 3 2 5 5 4 3 4 5 5 5 6 7 8 8 8 8 7 7 7 7 6 7 6 6 5 3 3 3 2 2 2 2 2 2 2
2 2 4 5 5 5 4 3 4 5 6 3 4 4 1 2 4 4 4 5 6 7 8 8 8 8 8 7 7 7 7 7 6 6 5 4 3 2 2 2 2 2 2 2
3 3 4 4 2 4 1 1 3 5 6 6 5 6 1 2 2 2 3 4 5 7 7 8 8 8 8 8 7 6 7 7 6 6 5 5 3 2 2 3 3 3 3 2
1 1 1 1 1 2 3 4 4 5 6 6 3 6 2 1 2 2 1 2 3 5 7 7 7 7 7 7 7 7 6 6 6 6 6 5 4 4 4 4 3 3 2 2
4 4 2 2 4 4 6 6 4 5 5 2 1 5 1 2 2 3 2 1 2 4 5 6 7 7 7 8 8 7 7 7 7 7 6 6 5 5 4 4 3 3 2 2
4 4 3 3 4 3 5 6 5 4 3 1 3 4 1 2 2 2 1 1 1 3 4 5 6 7 7 8 8 8 8 7 7 7 6 5 5 4 3 4 3 3 2 2
3 2 3 1 2 4 5 5 4 7 5 6 3 2 2 2 1 1 1 2 1 1 3 4 5 6 7 8 8 8 8 7 7 7 7 5 5 4 4 4 4 3 2 3
4 4 2 2 4 2 4 2 4 6 5 6 4 5 3 2 1 1 1 1 1 1 2 3 4 4 5 7 7 8 7 7 7 7 6 5 5 5 4 4 4 4 4 3
4 5 4 5 5 4 5 6 6 5 6 6 5 1 2 1 0 2 2 2 1 1 1 3 3 4 4 5 6 7 7 7 7 6 6 6 6 6 5 5 5 4 4 4
3 5 5 5 1 3 6 6 7 7 6 6 7 2 3 2 1 2 3 2 2 2 1 3 4 4 4 5 5 6 7 7 6 6 6 6 6 6 6 5 5 5 5 5
3 5 5 4 6 6 6 6 7 8 7 8 9 4 4 3 3 3 3 3 3 2 2 2 3 4 4 4 5 5 6 6 6 6 6 6 6 7 6 6 5 5 5 5
4 6 7 6 4 3 6 7 8 9 9 10 11 10 7 6 6 5 4 4 3 3 2 3 3 4 4 4 5 5 5 6 6 6 6 6 6 6 6 6 6 6 6 6
5 7 8 8 7 8 10 10 11 13 13 13 12 11 10 8 6 5 5 4 4 4 3 4 4 5 5 5 5 5 5 6 6 7 7 6 6 6 6 6 6 6 5 5
6 7 7 9 7 8 12 13 13 14 14 14 14 13 8 7 7 6 6 5 5 5 5 5 5 5 6 6 6 5 6 6 7 7 7 6 6 5 6 6 6 6 5 5
5 7 7 8 5 8 12 10 12 11 10 11 12 10 6 7 7 6 5 5 6 5 5 6 6 6 6 7 7 6 6 7 7 7 7 6 6 6 6 6 6 6 6 6
7 7 6 6 7 10 4 0 5 8 9 9 10 8 7 7 7 6 5 5 6 6 6 6 6 6 6 6 7 6 6 7 7 7 7 7 7 6 6 7 7 6 6 6
8 8 6 6 8 10 7 5 6 8 8 7 8 7 6 5 6 5 4 5 6 6 6 6 6 6 5 6 6 7 7 7 8 8 8 8 7 7 7 7 7 7 6 6
6 8 8 7 9 9 4 2 3 6 8 4 6 5 4 4 6 4 3 4 6 6 5 5 5 5 5 5 6 7 8 8 9 8 8 8 8 8 8 8 7 6 6 6
7 8 11 12 11 9 2 2 4 8 3 1 4 4 5 6 6 5 5 5 5 5 5 4 4 5 5 5 6 8 8 9 8 7 7 7 8 8 8 7 7 6 6 6
8 7 10 10 11 9 3 5 7 4 3 3 4 5 6 7 6 6 6 5 5 5 5 4 4 5 5 5 7 7 8 7 6 7 7 8 8 7 6 7 6 7 6 6
8 7 6 8 7 4 4 6 6 6 7 6 6 6 7 7 7 7 7 6 5 5 5 5 5 5 4 5 7 8 6 6 6 7 8 7 8 7 7 7 7 7 7 6
6 5 8 9 9 8 8 8 8 8 8 8 7 7 7 8 8 7 7 6 6 5 5 5 5 6 5 5 6 6 5 6 7 8 8 7 7 7 7 6 6 7 7 6
7 5 8 12 11 10 9 8 9 8 7 7 7 7 8 8 8 8 7 7 6 5 5 5 6 6 6 5 6 6 5 6 7 7 7 7 7 7 7 7 6 7 7 7
8 9 10 10 9 9 9 8 8 8 8 7 7 7 7 7 8 8 7 7 6 6 5 6 6 7 6 5 5 5 6 6 6 6 6 6 5 5 6 6 5 4 6 6
Wind_Direction
175 193 189 186 216 247 204 223 236 270 249 257 265 273 257 204 216 226 220 216 214 212 204 196 196 194 191 186 184 178 175 166 163 164 169 157 135 125 107 81 77 82 90 86
186 195 181 181 188 212 228 239 244 229 223 267 281 277 256 223 220 229 232 224 220 215 203 193 193 193 195 188 188 183 185 178 178 176 169 152 130 121 93 93 81 71 93 89
213 86 142 188 196 214 232 251 260 270 255 235 267 243 210 199 218 225 234 234 224 215 211 198 191 192 192 191 188 188 187 182 182 175 163 154 152 160 145 131 102 70 83 92
199 176 191 203 209 238 239 250 259 258 263 256 266 273 192 196 200 216 227 227 226 217 211 203 193 192 194 192 186 191 185 184 181 180 187 187 182 171 152 142 127 123 111 109
164 175 203 216 220 241 293 183 238 254 265 260 246 266 213 166 226 242 234 228 222 214 208 201 198 195 194 188 183 185 181 183 181 187 189 200 190 167 153 152 140 140 120 117
170 177 265 275 187 218 182 200 206 228 246 245 253 260 263 120 308 315 267 227 216 205 203 201 196 188 187 182 180 180 179 183 182 187 191 197 186 175 167 168 155 156 140 136
188 185 176 208 196 179 219 243 237 218 217 232 164 252 266 32 337 322 322 286 213 192 195 194 191 185 183 181 182 182 182 183 186 192 194 193 190 189 185 181 172 173 157 148
217 185 169 210 245 231 223 254 274 284 278 271 205 246 115 50 348 325 320 1 144 174 186 190 191 187 184 184 184 186 186 187 187 195 199 198 187 194 184 188 181 180 164 151
239 177 131 190 262 256 222 232 283 284 279 271 228 211 205 196 185 32 33 43 44 155 180 183 181 184 186 187 189 192 190 190 190 196 198 198 198 194 183 185 182 178 169 158
272 251 178 158 187 191 281 251 227 249 269 264 248 237 224 177 171 72 29 20 21 30 174 174 176 180 188 190 190 191 196 194 194 198 196 189 197 197 197 189 183 180 176 170
255 252 209 203 227 220 203 218 241 253 264 277 274 236 82 171 288 326 336 357 3 338 189 174 174 177 184 189 190 190 195 197 194 196 196 191 193 193 196 197 192 189 188 186
234 264 249 235 223 278 254 249 243 254 250 255 275 269 120 183 264 306 309 329 326 308 225 185 177 172 178 185 193 195 196 195 196 197 195 193 190 189 196 198 196 193 192 193
198 244 251 215 191 194 224 235 245 258 261 253 256 257 153 224 275 288 292 300 300 284 233 195 186 184 187 190 191 198 199 199 196 195 196 192 193 193 195 197 197 198 197 194
228 241 254 269 301 278 252 241 238 243 252 256 255 266 258 261 273 281 286 286 284 268 255 221 211 207 205 204 197 198 200 196 195 196 200 199 199 198 198 197 196 200 199 197
234 250 252 265 273 266 266 262 250 247 255 263 271 273 271 264 265 271 278 278 272 265 255 239 223 220 212 209 206 202 202 195 195 196 200 204 200 197 198 195 194 197 199 201
234 251 256 257 256 261 265 261 254 252 255 257 264 266 271 263 259 257 262 265 264 259 252 249 237 228 222 215 208 205 206 198 197 199 198 196 196 192 195 196 196 193 194 201
223 237 250 262 264 270 259 250 242 242 244 253 259 267 268 256 250 253 261 260 261 263 261 255 243 232 231 224 212 208 206 197 197 198 193 192 194 190 194 194 192 194 198 202
233 234 248 264 261 251 270 292 253 255 256 253 262 272 262 262 259 256 261 260 265 269 266 258 252 245 242 229 218 210 205 200 199 198 194 192 194 192 196 195 195 200 202 201
234 229 234 245 257 266 258 234 232 246 259 256 251 259 265 270 255 240 254 265 270 273 271 266 260 253 245 230 215 209 206 201 201 201 199 194 194 194 197 199 200 203 203 203
209 225 234 233 250 258 257 169 213 257 255 233 231 244 256 253 254 263 290 276 278 281 281 276 263 255 244 231 216 211 211 206 207 205 204 197 196 197 202 203 202 203 205 208
197 210 225 237 248 259 269 170 203 235 273 162 228 246 244 249 286 309 301 287 280 281 281 276 260 248 241 228 217 218 214 213 213 206 203 200 200 201 204 204 200 200 203 207
224 221 223 229 240 246 158 188 222 277 324 291 276 271 263 270 288 293 290 287 282 280 278 269 261 252 243 229 220 222 222 215 208 202 202 203 202 202 201 199 199 202 201 205
235 245 252 243 255 293 231 242 274 289 280 280 280 277 272 269 275 281 280 277 274 273 271 264 260 258 249 232 225 224 222 212 202 201 204 205 202 202 200 198 197 200 203 210
237 249 249 254 256 266 270 270 274 274 274 276 276 274 269 269 271 272 273 272 269 267 267 263 254 252 250 238 231 230 217 208 204 204 205 202 203 203 203 202 203 203 204 208
258 244 250 260 268 276 265 268 275 278 275 274 275 272 269 269 269 267 270 270 269 264 259 255 249 246 247 240 232 222 211 205 210 209 209 207 207 206 206 208 210 212 213 212
240 242 252 265 278 281 284 291 292 283 276 273 273 274 269 265 266 268 268 269 267 264 260 253 249 248 246 238 232 220 211 206 209 210 209 209 207 207 209 210 213 223 228 219